User: anonymous   Login
Location: Caltech
(34.1382°N, 118.1253°W)
Time: 09:00:51
(UTC-07:00)
Language:

Iridium 62 - Orbit

View from above orbital plane
View from above orbital plane
View from above satellite
View from above satellite

Ground track
Ground track

The orbit data is extracted from the following two-line orbital elements,

1 25285U 98021A   16243.48845356  .00000008  00000-0 -43395-5 0  9999
2 25285  86.4003 345.4395 0002095  97.9013 262.2421 14.34218230963356
Epoch (UTC): 30 August 2016 11:43:22
Eccentricity: 0.0002095
inclination: 86.4003°
perigee height: 776 km
apogee height: 779 km
right ascension of ascending node: 345.4395°
argument of perigee: 97.9013°
revolutions per day: 14.34218230
mean anomaly at epoch: 262.2421°
orbit number at epoch: 96335

The dashed part of the orbit path shows where the satellite is in the earth's shadow,  

DLR